Observations
| Time | Sensor | AQI | SAQ | Temp °C | Hum % | Pres Pa | CO μg/m³ | H₂S μg/m³ | NO μg/m³ | NO₂ μg/m³ | O₃ μg/m³ | SO₂ μg/m³ | CO₂e PPM | VOC PPM | PM1 μg/m³ | PM2.5 μg/m³ | PM4 μg/m³ | PM10 μg/m³ | TPS µm |
|---|---|---|---|---|---|---|---|---|---|---|---|---|---|---|---|---|---|---|---|
| Tuesday 11 August 2026 | |||||||||||||||||||
| 01:08 | Trim Patrick St | 2 | 13.3 | 71 | 38,370 | 0.22 | 6.19 | 3.63 | 35.93 | 11.74 | 0 | 4.57 | 7.99 | 8.79 | |||||
| 01:08 | Trim Market St | 2 | 14.9 | 63 | 57,780 | 0.3 | 0 | 2.56 | 13.78 | 45.12 | 0 | 2.14 | 4.38 | 6.19 | |||||
| 01:07 | Trim Patrick St | 2 | 13.3 | 70 | 38,341 | 0.22 | 6.14 | 3.63 | 35.02 | 12.62 | 0 | 2.86 | 6.56 | 7.22 | |||||
| 01:06 | Trim Patrick St | 2 | 13.3 | 70 | 38,301 | 0.23 | 6.11 | 3.63 | 34.56 | 12.97 | 0 | 3.71 | 7.29 | 8.02 | |||||
| 01:05 | Trim Patrick St | 2 | 13.4 | 70 | 38,248 | 0.22 | 5.88 | 3.6 | 34.92 | 12.35 | 0 | 2.86 | 7.29 | 8.02 | |||||
| 01:04 | Trim Market St | 2 | 14.9 | 63 | 57,787 | 0.3 | 0 | 2.68 | 15.54 | 35.8 | 0 | 1.43 | 2.9 | 4.18 | |||||
| 01:04 | Trim Patrick St | 2 | 13.4 | 70 | 38,176 | 0.21 | 5.93 | 3.6 | 34.91 | 12.04 | 0 | 3.71 | 8.74 | 9.62 | |||||
| 01:03 | Trim Market St | 2 | 14.9 | 63 | 57,791 | 0.26 | 0 | 2.71 | 16.35 | 35.76 | 0 | 2.14 | 3.89 | 5.52 | |||||
| 01:03 | Trim Patrick St | 2 | 13.4 | 70 | 38,082 | 0.21 | 6.19 | 3.6 | 34.46 | 12.86 | 0 | 3.71 | 7.3 | 8.03 | |||||
| 01:02 | Trim Patrick St | 2 | 13.4 | 70 | 37,954 | 0.21 | 6.01 | 3.59 | 34.45 | 12.19 | 0 | 3.71 | 7.31 | 8.04 | |||||
| 01:01 | Trim Market St | 2 | 14.9 | 63 | 57,795 | 0.26 | 0 | 2.6 | 15.15 | 41.64 | 0 | 2.14 | 3.4 | 4.85 | |||||
| 01:01 | Trim Patrick St | 2 | 13.4 | 70 | 37,787 | 0.22 | 5.67 | 3.48 | 32.18 | 14.08 | 0 | 2.86 | 6.59 | 7.25 | |||||
| 01:00 | Trim Patrick St | 2 | 13.4 | 70 | 37,562 | 0.21 | 5.88 | 3.52 | 35.32 | 11.7 | 0 | 3.71 | 8.04 | 8.85 | |||||
| 00:59 | Trim Patrick St | 2 | 13.4 | 70 | 37,262 | 0.23 | 5.75 | 3.45 | 34.43 | 12.18 | 0 | 3.71 | 7.32 | 8.05 | |||||
| 00:58 | Trim Patrick St | 2 | 13.5 | 70 | 36,862 | 0.21 | 6.17 | 3.49 | 30.71 | 14.85 | 0 | 2 | 6.61 | 7.27 | |||||
| 00:57 | Trim Patrick St | 2 | 13.5 | 70 | 36,330 | 0.21 | 7.18 | 3.4 | 39.61 | 9.86 | 0 | 2.86 | 7.34 | 8.07 | |||||
| 00:56 | Trim Patrick St | 2 | 13.5 | 70 | 35,619 | 0.22 | 6.22 | 3.5 | 34.79 | 12.94 | 0 | 3.71 | 8.06 | 8.86 | |||||
| 00:55 | Trim Patrick St | 2 | 13.5 | 70 | 34,671 | 0.21 | 6.06 | 3.45 | 34.77 | 11.88 | 0 | 3.71 | 7.34 | 8.08 | |||||
| 00:54 | Trim Market St | 2 | 15 | 62 | 57,819 | 0.25 | 0 | 1.85 | 17.5 | 39.3 | 0 | 1.43 | 2.42 | 4.17 | |||||
| 00:54 | Trim Patrick St | 2 | 13.5 | 70 | 33,409 | 0.21 | 6.22 | 3.43 | 34.31 | 12.19 | 0 | 2.86 | 6.63 | 7.29 | |||||